FW5442 Weather Reports


time (UTC)temp
C
wind
direction
speed
KPH
gust
KPH
rain 1hr
cm
rain 24hr
cm
rain mn
cm
humidity
%
barometer
mb
20260504035556 17 0 0.0 0.0 0.00 0.00 0.00 64 1015.9
20260504035055 17 0 0.0 11.3 0.00 0.00 0.00 64 1015.8
20260504034557 17 0 1.6 11.3 0.00 0.00 0.00 63 1015.8
20260504034057 17 177 8.0 11.3 0.00 0.00 0.00 62 1015.9
20260504033555 17 0 0.0 11.3 0.00 0.00 0.00 62 1015.9
20260504033053 17 0 6.4 11.3 0.00 0.00 0.00 61 1015.9
20260504032555 17 186 0.0 0.0 0.00 0.00 0.00 61 1015.9
20260504032058 17 0 0.0 0.0 0.00 0.00 0.00 61 1015.8
20260504031555 17 0 0.0 0.0 0.00 0.00 0.00 60 1015.9
20260504031052 18 0 0.0 0.0 0.00 0.00 0.00 60 1016.0
20260504030555 18 0 0.0 8.0 0.00 0.00 0.00 59 1015.9
20260504030055 18 0 0.0 8.0 0.00 0.00 0.00 59 1015.9
20260504025555 18 0 0.0 8.0 0.00 0.00 0.00 59 1015.9
20260504025052 18 0 0.0 0.0 0.00 0.00 0.00 58 1015.8
20260504024609 18 0 0.0 0.0 0.00 0.00 0.00 58 1015.9
20260504024053 18 0 0.0 0.0 0.00 0.00 0.00 58 1015.9
20260504023555 18 0 0.0 6.4 0.00 0.00 0.00 58 1015.9
20260504023054 18 0 0.0 6.4 0.00 0.00 0.00 57 1015.8
20260504022557 18 0 0.0 4.8 0.00 0.00 0.00 55 1015.7
20260504022055 18 0 0.0 9.7 0.00 0.00 0.00 55 1015.7
20260504021555 19 0 0.0 9.7 0.00 0.00 0.00 54 1015.6
20260504021055 19 0 1.6 9.7 0.00 0.00 0.00 53 1015.6
20260504020557 19 0 0.0 8.0 0.00 0.00 0.00 52 1015.6
20260504020057 20 0 0.0 8.0 0.00 0.00 0.00 52 1015.5
20260504015556 20 0 1.6 8.0 0.00 0.00 0.00 51 1015.5
20260504015056 20 0 0.0 6.4 0.00 0.00 0.00 50 1015.4
20260504014605 20 0 0.0 6.4 0.00 0.00 0.00 50 1015.5
20260504014055 20 0 0.0 6.4 0.00 0.00 0.00 49 1015.4
20260504013555 20 0 1.6 6.4 0.00 0.00 0.00 49 1015.4
20260504013058 20 0 0.0 0.0 0.00 0.00 0.00 49 1015.4
20260504012555 20 0 0.0 0.0 0.00 0.00 0.00 48 1015.4
20260504012054 21 0 0.0 0.0 0.00 0.00 0.00 48 1015.4
20260504011631 21 0 0.0 0.0 0.00 0.00 0.00 47 1015.4
20260504011054 21 0 0.0 0.0 0.00 0.00 0.00 46 1015.3
20260504010552 22 0 0.0 0.0 0.00 0.00 0.00 44 1015.2
20260504010104 22 0 0.0 0.0 0.00 0.00 0.00 45 1015.2
20260504005553 22 0 0.0 0.0 0.00 0.00 0.00 45 1015.0
20260504005057 22 0 0.0 0.0 0.00 0.00 0.00 46 1015.1
20260504004553 22 0 0.0 6.4 0.00 0.00 0.00 44 1015.1
20260504004055 22 0 0.0 6.4 0.00 0.00 0.00 43 1015.0
20260504003556 23 210 0.0 0.0 0.00 0.00 0.00 42 1015.1
20260504003056 23 0 0.0 0.0 0.00 0.00 0.00 41 1015.0
20260504002555 23 0 0.0 0.0 0.00 0.00 0.00 40 1014.8
20260504002055 23 0 0.0 0.0 0.00 0.00 0.00 40 1014.8
20260504001556 23 0 0.0 11.3 0.00 0.00 0.00 39 1014.9
20260504001052 23 0 0.0 11.3 0.00 0.00 0.00 38 1015.0
20260504000557 23 0 0.0 16.1 0.00 0.00 0.00 38 1015.0
20260504000137 23 0 1.6 16.1 0.00 0.00 0.00 38 1015.1
20260503235554 23 218 1.6 24.1 0.00 0.00 0.00 39 1015.1
20260503235053 23 221 8.0 24.1 0.00 0.00 0.00 38 1015.2
20260503234601 24 214 17.7 24.1 0.00 0.00 0.00 37 1015.2
20260503234058 24 198 8.0 27.4 0.00 0.00 0.00 38 1015.3
20260503233553 24 0 3.2 27.4 0.00 0.00 0.00 39 1015.3
20260503233054 24 263 14.5 27.4 0.00 0.00 0.00 38 1015.3
20260503232552 24 0 0.0 16.1 0.00 0.00 0.00 39 1015.5
20260503232055 24 0 1.6 17.7 0.00 0.00 0.00 38 1015.5
20260503231556 24 254 1.6 17.7 0.00 0.00 0.00 36 1015.6
20260503231052 24 250 0.0 17.7 0.00 0.00 0.00 38 1015.6
20260503230552 24 0 4.8 17.7 0.00 0.00 0.00 35 1015.6
20260503230056 24 0 4.8 17.7 0.00 0.00 0.00 36 1015.7
20260503225553 24 210 8.0 17.7 0.00 0.00 0.00 35 1015.6
20260503225052 24 0 8.0 17.7 0.00 0.00 0.00 36 1015.8
20260503224554 25 0 0.0 14.5 0.00 0.00 0.00 36 1015.8
20260503224055 24 0 1.6 19.3 0.00 0.00 0.00 36 1015.7
20260503223553 25 0 0.0 19.3 0.00 0.00 0.00 35 1015.8
20260503223058 25 0 4.8 19.3 0.00 0.00 0.00 34 1015.9
20260503222552 24 0 0.0 16.1 0.00 0.00 0.00 36 1015.9
20260503222052 24 0 1.6 19.3 0.00 0.00 0.00 37 1016.1
20260503221557 24 0 0.0 25.7 0.00 0.00 0.00 39 1016.1
20260503221055 25 236 12.9 25.7 0.00 0.00 0.00 37 1016.2
20260503220552 25 0 0.0 17.7 0.00 0.00 0.00 37 1016.1
20260503220057 24 0 3.2 25.7 0.00 0.00 0.00 37 1016.1
20260503215551 24 0 1.6 29.0 0.00 0.00 0.00 39 1016.3
20260503215051 24 250 17.7 29.0 0.00 0.00 0.00 37 1016.4
20260503214555 24 230 11.3 25.7 0.00 0.00 0.00 38 1016.5
20260503214052 24 212 0.0 17.7 0.00 0.00 0.00 40 1016.4
20260503213552 24 0 6.4 20.9 0.00 0.00 0.00 37 1016.4
20260503213100 24 0 9.7 20.9 0.00 0.00 0.00 40 1016.5
20260503212558 24 242 4.8 29.0 0.00 0.00 0.00 39 1016.6
20260503212055 24 308 0.0 29.0 0.00 0.00 0.00 38 1016.6
20260503211615 23 286 14.5 29.0 0.00 0.00 0.00 37 1016.7
20260503211052 23 0 8.0 29.0 0.00 0.00 0.00 38 1016.8
20260503210555 23 271 14.5 24.1 0.00 0.00 0.00 39 1016.9
20260503210056 23 255 0.0 20.9 0.00 0.00 0.00 38 1016.9
20260503205552 23 0 3.2 29.0 0.00 0.00 0.00 37 1016.9
20260503205053 23 234 12.9 30.6 0.00 0.00 0.00 37 1017.1
20260503204555 23 253 16.1 30.6 0.00 0.00 0.00 38 1017.2
20260503204056 23 294 9.7 32.2 0.00 0.00 0.00 36 1017.3
20260503203555 23 244 24.1 32.2 0.00 0.00 0.00 38 1017.5
20260503203114 23 283 17.7 25.7 0.00 0.00 0.00 37 1017.5
20260503202555 23 0 11.3 29.0 0.00 0.00 0.00 38 1017.6
20260503202059 23 0 1.6 30.6 0.00 0.00 0.00 39 1017.6
20260503201558 23 259 17.7 30.6 0.00 0.00 0.00 39 1017.9
20260503201055 23 0 1.6 24.1 0.00 0.00 0.00 38 1017.9
20260503200559 23 243 14.5 24.1 0.00 0.00 0.00 39 1018.0
20260503200057 23 229 12.9 32.2 0.00 0.00 0.00 40 1018.0
20260503195555 23 281 3.2 32.2 0.00 0.00 0.00 40 1018.2
20260503195056 23 264 24.1 32.2 0.00 0.00 0.00 38 1018.3
20260503194558 23 269 8.0 33.8 0.00 0.00 0.00 38 1018.3
20260503194055 23 293 11.3 33.8 0.00 0.00 0.00 38 1018.5
20260503193056 23 279 4.8 20.9 0.00 0.00 0.00 40 1018.7
20260503192554 22 262 8.0 20.9 0.00 0.00 0.00 40 1018.7
20260503192052 22 0 11.3 25.7 0.00 0.00 0.00 38 1018.7
20260503191553 22 262 16.1 25.7 0.00 0.00 0.00 40 1018.7
20260503191055 22 276 9.7 20.9 0.00 0.00 0.00 38 1018.8
20260503190551 22 360 8.0 24.1 0.00 0.00 0.00 38 1018.8
20260503190053 22 318 14.5 30.6 0.00 0.00 0.00 36 1018.9
20260503185551 22 266 16.1 30.6 0.00 0.00 0.00 37 1019.1
20260503185052 22 0 12.9 30.6 0.00 0.00 0.00 36 1019.0
20260503184556 22 0 6.4 29.0 0.00 0.00 0.00 38 1019.1
20260503184057 22 286 12.9 29.0 0.00 0.00 0.00 36 1019.1
20260503183552 22 283 14.5 24.1 0.00 0.00 0.00 34 1019.2
20260503183053 22 0 1.6 17.7 0.00 0.00 0.00 35 1019.3
20260503182552 22 0 4.8 17.7 0.00 0.00 0.00 35 1019.3
20260503182056 22 0 0.0 16.1 0.00 0.00 0.00 35 1019.5
20260503181602 22 0 4.8 24.1 0.00 0.00 0.00 36 1019.5
20260503181053 22 0 6.4 24.1 0.00 0.00 0.00 35 1019.6
20260503180552 22 269 8.0 20.9 0.00 0.00 0.00 38 1019.6
20260503180059 22 0 0.0 22.5 0.00 0.00 0.00 35 1019.7
20260503175553 22 221 0.0 22.5 0.00 0.00 0.00 39 1019.8
20260503175053 22 276 14.5 22.5 0.00 0.00 0.00 37 1020.0
20260503174055 21 0 3.2 24.1 0.00 0.00 0.00 39 1020.1
20260503173553 21 0 6.4 24.1 0.00 0.00 0.00 38 1020.2
20260503173100 21 231 6.4 24.1 0.00 0.00 0.00 38 1020.2
20260503172553 21 149 0.0 17.7 0.00 0.00 0.00 42 1020.2
20260503172052 21 151 1.6 20.9 0.00 0.00 0.00 40 1020.3
20260503171554 21 0 3.2 20.9 0.00 0.00 0.00 41 1020.3
20260503171052 21 0 6.4 20.9 0.00 0.00 0.00 42 1020.5
20260503170553 21 0 1.6 16.1 0.00 0.00 0.00 44 1020.5
20260503150552 17 164 8.0 20.9 0.00 0.00 0.00 50 1021.6
20260503131056 13 127 12.9 19.3 0.00 0.00 0.00 67 1021.5
20260503130552 13 110 12.9 17.7 0.00 0.00 0.00 69 1021.4
20260503120103 10 0 0.0 0.0 0.00 0.00 0.00 83 1021.1
20260503110555 9 0 0.0 0.0 0.00 0.00 0.00 83 1020.5
20260503100104 10 0 0.0 0.0 0.00 0.00 0.00 81 1019.8
20260503081553 11 64 6.4 11.3 0.00 0.00 0.00 73 1019.4
20260503081055 11 83 4.8 11.3 0.00 0.00 0.00 73 1019.3
20260503080555 11 68 0.0 8.0 0.00 0.00 0.00 72 1019.3
20260503072552 12 0 0.0 4.8 0.00 0.00 0.00 67 1019.1
20260503072053 12 0 0.0 0.0 0.00 0.00 0.00 67 1019.2
20260503071604 12 0 0.0 8.0 0.00 0.00 0.00 67 1019.2
20260503071052 12 0 0.0 8.0 0.00 0.00 0.00 67 1019.2
20260503070555 12 0 0.0 3.2 0.00 0.00 0.00 69 1019.2
20260503070105 12 0 0.0 0.0 0.00 0.00 0.00 71 1019.3
20260503060107 12 0 0.0 0.0 0.00 0.00 0.00 74 1019.1
20260503055052 12 0 0.0 0.0 0.00 0.00 0.00 75 1019.0
20260503054555 12 0 0.0 0.0 0.00 0.00 0.00 75 1018.9
20260503054053 12 0 0.0 0.0 0.00 0.00 0.00 74 1018.9
20260503053553 12 0 0.0 0.0 0.00 0.00 0.00 73 1018.9
20260503053051 12 0 0.0 0.0 0.00 0.00 0.00 73 1018.7
20260503052552 12 0 0.0 0.0 0.00 0.00 0.00 73 1018.9
20260503052052 12 0 0.0 0.0 0.00 0.00 0.00 74 1018.7
20260503051552 12 0 0.0 0.0 0.00 0.00 0.00 74 1018.6
20260503051051 12 0 0.0 0.0 0.00 0.00 0.00 74 1018.7
20260503050556 13 0 0.0 0.0 0.00 0.00 0.00 74 1018.7
20260503050053 13 0 0.0 0.0 0.00 0.00 0.00 72 1018.7
20260503045552 13 0 0.0 0.0 0.00 0.00 0.00 71 1018.6
20260503045053 13 0 0.0 0.0 0.00 0.00 0.00 71 1018.6
20260503044601 13 0 0.0 0.0 0.00 0.00 0.00 73 1018.6
20260503044052 13 0 0.0 0.0 0.00 0.00 0.00 71 1018.6
20260503043552 13 0 0.0 0.0 0.00 0.00 0.00 70 1018.6
20260503043103 14 0 0.0 0.0 0.00 0.00 0.00 67 1018.6
20260503042552 14 0 0.0 0.0 0.00 0.00 0.00 67 1018.6
20260503042052 14 0 0.0 0.0 0.00 0.00 0.00 67 1018.6
20260503041554 14 0 0.0 0.0 0.00 0.00 0.00 66 1018.5
20260503041051 14 0 0.0 0.0 0.00 0.00 0.00 66 1018.4
20260503040551 14 0 0.0 0.0 0.00 0.00 0.00 65 1018.4
20260503040055 14 0 0.0 0.0 0.00 0.00 0.00 65 1018.4